Miscellaneous Local Product
Issued by NWS Hastings, NE

Home | Current Version | Previous Version | Text Only | Print | Product List | Glossary Off
Versions: 1 2 3 4 5 6 7 8 9 10 11 12 13 14 15 16 17 18 19 20 21 22 23 24 25 26 27 28 29 30 31 32 33 34 35 36 37 38 39 40 41 42 43 44 45 46 47 48 49 50

131
AXUS43 KGID 261102
MISGRI

GID CWA HOURLY WEATHER ROUNDUP
NATIONAL WEATHER SERVICE HASTINGS NE
600 AM CDT SUN MAR 26 2017

NOTE: "FAIR" INDICATES FEW OR NO CLOUDS BELOW 12,000 FEET WITH NO
SIGNIFICANT WEATHER AND/OR OBSTRUCTIONS TO VISIBILITY.

...SOUTH CENTRAL NEBRASKA...

CITY           SKY/WX    TMP DP  RH WIND       PRES   REMARKS
GRAND ISLAND   CLOUDY    38  38 100 N3        29.88F FOG
HASTINGS       CLOUDY    39  37  92 CALM      29.89R FOG
KEARNEY        CLOUDY    39  36  87 CALM      29.87F
ORD            CLOUDY    40  37  89 CALM      29.85F FOG
YORK           CLOUDY    39  39 100 CALM      29.89F FOG
AURORA         CLOUDY    38  38 100 NE3       29.87F FOG
LEXINGTON      CLOUDY    40  38  92 SE5       29.86S
HOLDREGE       CLOUDY    39  38  95 CALM      29.86S FOG
HEBRON         CLOUDY    39  38  97 CALM      29.89S FOG

...NEBRASKA PANHANDLE...

CITY           SKY/WX    TMP DP  RH WIND       PRES   REMARKS
CHADRON        CLOUDY    46  33  60 N8        29.79S
ALLIANCE       PTCLDY    35  31  85 SE9       29.80S WCI  28
SCOTTSBLUFF    CLOUDY    42  30  62 E6        29.79F
SIDNEY         CLOUDY    41  32  70 CALM      29.81F

...WESTERN AND NORTH CENTRAL NEBRASKA...

CITY           SKY/WX    TMP DP  RH WIND       PRES   REMARKS
VALENTINE      CLOUDY    38  36  92 S8        29.85R WCI  32
AINSWORTH      CLOUDY    38  38 100 CALM      29.85S FOG
ONEILL         FOG       39  39 100 CALM      29.88F VSB 1/4
BROKEN BOW     CLOUDY    41  40  96 SW5       29.85S FOG
IMPERIAL       FOG       39  38  96 SE6       29.83S VSB 1/4 WCI  35
NORTH PLATTE   CLOUDY    40  37  89 VRB3      29.86R
MCCOOK         CLOUDY    40  40 100 SE6       29.85S FOG

...EASTERN NEBRASKA...

CITY           SKY/WX    TMP DP  RH WIND       PRES   REMARKS
NORFOLK        FOG       37  36  96 NW3       29.89S VSB 1
SO SIOUX CITY  CLOUDY    39  38  96 N5        29.91R
TEKAMAH        CLOUDY    39  38  96 N7        29.90R FOG     WCI  34
COLUMBUS       CLOUDY    37  36  93 N3        29.90F
ALBION         CLOUDY    40  38  91 CALM      29.88F FOG
OMAHA EPPLEY   CLOUDY    40  37  89 N6        29.89S FOG
OFFUTT AFB     CLOUDY    40  38  90 N6        29.88F
MILLARD        CLOUDY    42  40  93 NW3       29.90S
LINCOLN        CLOUDY    40  39  97 N6        29.91S FOG
NEBRASKA CITY  CLOUDY    40  40 100 N7        29.88F FOG     WCI  35
BEATRICE       CLOUDY    40  40 100 NW5       29.90R FOG
FALLS CITY     CLOUDY    42  41  96 NW5       29.88F

...NORTHERN KANSAS...

CITY           SKY/WX    TMP DP  RH WIND       PRES   REMARKS
GOODLAND       FOG       38  38 100 SE9       29.79F VSB 1   WCI  31
HILL CITY      CLOUDY    40  40 100 E6        29.87F FOG
NORTON         CLOUDY    39  36  87 E3        29.85S
PHILLIPSBURG   CLOUDY    39  39 100 CALM      29.88S FOG
HAYS             N/A     41  40  96 SE5       29.87F FOG
RUSSELL        CLOUDY    40  39  97 SE3       29.86F FOG
CONCORDIA      CLOUDY    40  40 100 N3        29.88F FOG
SALINA         CLOUDY    44  42  93 CALM      29.90R FOG
TOPEKA         CLOUDY    44  43  96 NW3       29.90R



USA.gov is the U.S. government's official web portal to all federal, state and local government web resources and services.